Location: Nemiskam
(49.4820°N, 111.2775°W)
Time: 08:21:18
(UTC+00:00)

Envisat - Pass Details

Date: 01 December 2022
Orbit: 763 x 765 km, 98.2° (Epoch: 28 January)

Event Time Altitude Azimuth Distance (km) Brightness Sun altitude
Rises 13:53:53 0° 359° (N) 3,247 6.0 -10.3°
Reaches altitude 10° 13:58:01 10° 326° (NW) 2,314 5.0 -9.7°
Maximum altitude 13:59:26 11° 310° (NW) 2,231 4.8 -9.5°
Enters shadow 13:59:41 11° 307° (NW) 2,233 4.8 -9.4°
